Change the Weather History Date:

Friday, November 7, 2014

  Actual Average Record
Temperature  
Mean Temperature 73 °F 74 °F  
Max Temperature 82 °F 81 °F 89 °F (1958)
Min Temperature 63 °F 67 °F 49 °F (1970)
Degree Days  
Heating Degree Days 0 0  
Month to date heating degree days 8 0  
Since 1 July heating degree days 8 1  
Cooling Degree Days 8 9  
Month to date cooling degree days 44 68  
Year to date cooling degree days 3980 3689  
Growing Degree Days 22 (Base 50)    
Moisture  
Dew Point 64 °F    
Average Humidity 74    
Maximum Humidity 93    
Minimum Humidity 54    
Precipitation  
Precipitation 0.00 in 0.18 in 5.33 in (1972)
Month to date precipitation 0.02 1.21  
Year to date precipitation 57.61 55.41  
Snow  
Snow 0.00 in - - ()
Month to date snowfall 0.0  
Since 1 July snowfall 0.0  
Since 1 September snowfall 0.0  
Snow Depth 0.00 in    
Sea Level Pressure  
Sea Level Pressure 29.94 in    
Wind  
Wind Speed 6 mph (NW)    
Max Wind Speed 15 mph    
Max Gust Speed 17 mph    
Visibility 10 miles    
Events      
T = Trace of Precipitation, MM = Missing Value Source: NWS Daily Summary

Daily Weather History Graph

Daily Weather History Graph

Search for Another Location

Airport or City:

Trip Planner

Search our weather history database for the weather conditions in past years. The results will help you decide how hot, cold, wet, or windy it might be!

Date:

Astronomy

Nov. 07, 2014 Rise Set
Actual Time 6:33 AM EST 5:33 PM EST
Civil Twilight 6:09 AM EST 5:57 PM EST
Nautical Twilight 5:42 AM EST 6:25 PM EST
Astronomical Twilight 5:14 AM EST 6:53 PM EST
Moon 6:26 PM EST (11/7) 7:07 AM EST (11/7)
Length of Visible Light 11h 48m
Length of Day
10h 59m
Full, 99% of the Moon is Illuminated
Nov 7
Full
Nov 14
Last Quarter
Nov 22
New
Nov 29
First Quarter
Dec 6
Full

Hourly Weather History & Observations

Time (EST) Temp. Heat Index Dew Point Humidity Pressure Visibility Wind Dir Wind Speed Gust Speed Precip Events Conditions
12:53 AM 70.0 °F - 63.0 °F 78% 29.96 in 10.0 mi WSW 4.6 mph - N/A   Scattered Clouds
1:53 AM 68.0 °F - 62.1 °F 81% 29.94 in 10.0 mi West 6.9 mph - N/A   Scattered Clouds
2:53 AM 66.9 °F - 62.1 °F 84% 29.92 in 10.0 mi West 4.6 mph - N/A   Partly Cloudy
3:53 AM 64.9 °F - 62.1 °F 90% 29.93 in 10.0 mi WNW 4.6 mph - N/A   Clear
4:53 AM 64.9 °F - 62.1 °F 90% 29.93 in 10.0 mi West 3.5 mph - N/A   Partly Cloudy
5:53 AM 63.0 °F - 61.0 °F 93% 29.94 in 10.0 mi WNW 3.5 mph - N/A   Scattered Clouds
6:53 AM 64.9 °F - 63.0 °F 93% 29.96 in 10.0 mi West 4.6 mph - N/A   Mostly Cloudy
7:53 AM 68.0 °F - 64.9 °F 90% 29.97 in 10.0 mi WNW 5.8 mph - N/A   Scattered Clouds
8:53 AM 72.0 °F - 64.9 °F 78% 29.99 in 10.0 mi NNW 13.8 mph - N/A   Scattered Clouds
9:53 AM 75.0 °F - 64.9 °F 71% 29.99 in 10.0 mi NNW 9.2 mph - N/A   Scattered Clouds
10:53 AM 77.0 °F - 64.0 °F 64% 29.97 in 10.0 mi NW 9.2 mph - N/A   Scattered Clouds
11:53 AM 79.0 °F - 63.0 °F 58% 29.95 in 10.0 mi North 6.9 mph - N/A   Scattered Clouds
12:53 PM 81.0 °F 81.9 °F 62.1 °F 52% 29.92 in 10.0 mi WNW 5.8 mph - N/A   Scattered Clouds
1:53 PM 79.0 °F - 66.0 °F 64% 29.89 in 10.0 mi ENE 6.9 mph - N/A   Mostly Cloudy
2:53 PM 78.1 °F - 64.9 °F 64% 29.89 in 10.0 mi ENE 9.2 mph - N/A   Mostly Cloudy
3:53 PM 77.0 °F - 64.9 °F 66% 29.89 in 10.0 mi NNE 8.1 mph - N/A   Mostly Cloudy
4:53 PM 75.9 °F - 66.0 °F 71% 29.90 in 10.0 mi NNE 6.9 mph - N/A   Mostly Cloudy
5:53 PM 75.0 °F - 66.0 °F 73% 29.91 in 10.0 mi North 6.9 mph - N/A   Scattered Clouds
6:53 PM 73.0 °F - 66.0 °F 79% 29.94 in 10.0 mi North 5.8 mph - N/A   Partly Cloudy
7:53 PM 72.0 °F - 64.9 °F 78% 29.95 in 10.0 mi North 3.5 mph - N/A   Clear
8:53 PM 71.1 °F - 64.9 °F 81% 29.95 in 10.0 mi North 3.5 mph - N/A   Clear
9:53 PM 69.1 °F - 64.9 °F 87% 29.95 in 10.0 mi Calm Calm - N/A   Scattered Clouds
10:53 PM 68.0 °F - 64.9 °F 90% 29.95 in 10.0 mi Calm Calm - N/A   Scattered Clouds
11:53 PM 69.1 °F - 64.9 °F 87% 29.94 in 10.0 mi WNW 3.5 mph - N/A   Mostly Cloudy